DELTA 1 DEB, 21452

Orbit data source: Space-Track

DELTA 1 DEB, 21452 is space debris in SSO originally from a launch on Thu, 12 Jun 1975 UTC launched from the Air Force Western Test Range (AFWTR). Debris objects in space refer to the collection of defunct objects orbiting the Earth. Examples of debris include non-operational satellites, rocket bodies, and fragments generated from explosions, collisions, or faulty payload assembly.

Loading next visibility...
Identifier
21452, 1975-052EL
Orbit
SSO
Country
Flag of USUS
Related business
Manufacturer
Unknown
Mission
Spacecraft
Bus & Motor
Unknown
Mass
Unknown
Launch date (UTC)
1975-06-12 (51 years ago)
Launch vehicle
Unknown
Launch site
Air Force Western Test Range (AFWTR)
Object type
Payload
Rocket body
Debris
Shape & HBR
Unknown shape, 0.1 m
Radar Cross Section
Medium (>0.1 m² and <1 m²)

Expand to show TLE details & history
Last TLE update: 2 days ago

TLE from 2 days ago
0 DELTA 1 DEB
1 21452U 75052EL  26171.17848687 -.00000520  00000-0 -20584-2 0  9999
2 21452  99.7372  55.2528 0574501 267.2583 252.0895 12.39556245575184
Epoch: 2026-06-20T04:17Z
TLE epoch observation values (Epoch: 2026-06-20T04:17:01.265Z)
Latitude
26.38482°
Longitude
-92.53934°
Altitude
1,673.736 km
Speed
6.966 km/s
True Right ascension
16h 00m 27s
True Declination
26° 15' 49"
Sunlit
Object was in daylight at epoch
Visualization orbit readout
Latitude
Unknown
Longitude
Unknown
Altitude
Unknown
Speed
Unknown
Apparent Right ascension
Unknown
Apparent Declination
Unknown
Sunlit
N/A
Visualization observer readout
Local Sidereal Time
07:32:15
Azimuth
Unknown
Elevation
Unknown
Doppler factor
Unknown
Orbital elements
Apogee altitude
1,958.865 km
Perigee altitude
1,052.985 km
Semi-major axis
7,884.062 km
Eccentricity
0.05745
Inclination
99.7372°
RAAN
55.2528°
Arg. of periapsis
267.2583°
True anomaly
245.97232°
Mean anomaly
252.0895°
Eccentric anomaly
249.01615°
Mean motion
3.1004 °/min
Orbital period
116.11 mins
BSTAR
-0.0020584
Loading maneuver chart data...
Computing Atmospheric mass density...
Loading historical data...
Loading historical data...
Loading historical data...
Loading historical data...
Loading historical data...
Loading historical data...
Loading historical data...

Documentation

Showing up to 5 results
|